Regional Weather Roundup
Issued by NWS

Home | Current Version | Previous Version | Graphics & Text | Print | Product List | Glossary On
Versions: 1 2 3 4 5 6 7 8 9 10 11 12 13 14 15 16 17 18 19 20 21 22 23 24 25 26 27
000
ASUS45 KSLC 211310
RWRUT

UTAH REGIONAL WEATHER ROUNDUP
NATIONAL WEATHER SERVICE SALT LAKE CITY UT
700 AM MDT MON AUG 21 2017

UTZ001>011-023>025-211400-

NORTHERN UTAH

CITY           SKY/WX    TMP DP  RH WIND       PRES   REMARKS
BRIGHAM CITY   CLEAR     61  43  53 CALM      30.10S
DUGWAY         PTCLDY    63  39  41 SE7       30.09R
HILL AFB       PTCLDY    64  37  36 E17       30.11R
LOGAN          CLEAR     56  46  69 CALM      30.13R
OGDEN          CLEAR     63  39  41 S7        30.09R
SALT LAKE CITY PTCLDY    69  43  38 E6        30.08R
TOOELE VALLEY  MOCLDY    64  41  42 S5        30.10R
WENDOVER       PTCLDY    69  35  28 CALM      30.09R
HEBER CITY     CLEAR     46  41  81 CALM      30.21R
WEST JORDAN    PTCLDY    69  49  49 S8        30.11R

$$

UTZ011>015-024>027-211400-

CENTRAL/NORTHEAST UTAH

CITY           SKY/WX    TMP DP  RH WIND       PRES   REMARKS
PROVO AIRPORT  CLEAR     60  42  51 E3        30.13R
MOAB/CANYONLAN PTCLDY    71  43  36 E3        30.08R
DELTA          CLEAR     61  41  48 CALM      30.14R
PRICE          MOCLDY    62  39  42 NE9       30.20R
RICHFIELD      CLEAR     55  48  76 CALM      30.22R
ROOSEVELT      CLEAR     57  45  62 SW6       30.17R
VERNAL         PTCLDY    61  45  55 CALM      30.16R

$$

UTZ013>016-019>022-027-211400-

SOUTHERN UTAH

CITY           SKY/WX    TMP DP  RH WIND       PRES   REMARKS
BRYCE CANYON   CLOUDY    54  49  83 CALM      30.36R
CEDAR CITY     CLOUDY    60  50  69 NE3       30.22R
MILFORD        PTCLDY    64  47  53 SW15      30.16R
ST GEORGE      SUNNY     74  51  44 CALM      30.06R
HANKSVILLE     CLOUDY    68  37  32 CALM      30.11R
KANAB          MOCLDY    66  50  55 CALM      30.21R
BLANDING       MOCLDY    57  48  73 N5        30.30R

$$

REGIONAL REPORTS     COLORADO/ARIZONA

CITY           SKY/WX    TMP DP  RH WIND       PRES   REMARKS
CRAIG, CO      CLEAR     46  40  79 CALM      30.26R
GRAND JUNCTION CLEAR     64  39  39 E9        30.13R
RIFLE, CO      CLOUDY    57  39  51 CALM      30.20R
MONTROSE, CO   CLOUDY    59  43  55 S6        30.22R
CORTEZ, CO     CLEAR     54  50  86 CALM      30.24R
COLORADO CITY  LGT RAIN  64  55  72 CALM      30.20S
PAGE, AZ       PTCLDY    74  44  34 S5        30.10R
GRAND CANYON   CLOUDY    57  54  89 CALM      30.28S
KINGMAN, AZ    MOCLDY    75  52  44 SE6       30.07R
FLAGSTAFF, AZ  CLOUDY    54  52  93 CALM      30.30R

$$

REGIONAL REPORTS    NEVADA/IDAHO/WYOMING

CITY           SKY/WX    TMP DP  RH WIND       PRES   REMARKS
LAS VEGAS, NV  CLOUDY    87  50  27 SW9       29.96R
ELY, NY        CLEAR     52  32  46 SE7       30.24R
ELKO, NV       PTCLDY    53  34  48 CALM      30.17R
POCATELLO, ID  PTCLDY    55  30  38 S5        30.16R
BURLEY, ID     PTCLDY    50  40  68 CALM      30.12R
FORT BRIDGER,    N/A     53  33  46 NW9       30.30R
EVANSTON, WY   CLOUDY    55  33  43 SE5       30.29R
ROCK SPRINGS,  CLOUDY    55  36  48 S5        30.26R
KEMMERER, WY     N/A     48  32  53 N13       30.30S

$$




USA.gov is the U.S. government's official web portal to all federal, state and local government web resources and services.